Weather History for PAFB - July, 2013

Change the Weather History Date:

Sunday, July 14, 2013

  Actual Average Record
Temperature  
Mean Temperature 72 °F -  
Max Temperature 88 °F 70 °F 88 °F (2013)
Min Temperature 55 °F 54 °F 46 °F (2012)
Cooling Degree Days 6    
Growing Degree Days 22 (Base 50)    
Moisture  
Dew Point 46 °F    
Average Humidity 41    
Maximum Humidity 67    
Minimum Humidity 21    
Precipitation  
Precipitation 0.00 in - - ()
Sea Level Pressure  
Sea Level Pressure 30.07 in    
Wind  
Wind Speed 5 mph (SSW)    
Max Wind Speed 14 mph    
Max Gust Speed 18 mph    
Visibility 10 miles    
Events      
Averages and records for this station are not official NWS values.
T = Trace of Precipitation, MM = Missing Value Source: NWS Daily Summary

Daily Weather History Graph

Daily Weather History Graph

Search for Another Location

Airport or City:

Trip Planner

Search our weather history database for the weather conditions in past years. The results will help you decide how hot, cold, wet, or windy it might be!

Date:

Astronomy

Jul. 14, 2013 Rise Set
Actual Time 3:49 AM AKDT 12:00 AM AKDT
Civil Twilight Sun does not set Sun does not set
Nautical Twilight Sun does not set Sun does not set
Astronomical Twilight Sun does not set Sun does not set
Moon 1:32 PM AKDT (7/14) 11:54 PM AKDT (7/14)
Length of Visible Light 24h 00m
Length of Day
20h 10m
Waxing Crescent, 36% of the Moon is Illuminated
Jul 14
Waxing Crescent
Jul 15
First Quarter
Jul 22
Full
Jul 29
Last Quarter
Aug 6
New

Hourly Weather History & Observations

Time (AKDT) Temp. Dew Point Humidity Pressure Visibility Wind Dir Wind Speed Gust Speed Precip Events Conditions
12:56 AM 59.0 °F 48.0 °F 67% 30.01 in 10.0 mi Calm Calm - N/A   Clear
1:56 AM 59.0 °F 46.9 °F 64% 30.03 in 10.0 mi Calm Calm - N/A   Clear
2:56 AM 57.9 °F 44.1 °F 60% 30.04 in 10.0 mi ENE 4.6 mph - N/A   Clear
3:56 AM 55.9 °F 43.0 °F 62% 30.06 in 10.0 mi East 5.8 mph - N/A   Clear
4:56 AM 55.9 °F 43.0 °F 62% 30.07 in 10.0 mi East 4.6 mph - N/A   Clear
5:56 AM 55.0 °F 43.0 °F 64% 30.09 in 10.0 mi ENE 6.9 mph - N/A   Clear
6:56 AM 59.0 °F 44.1 °F 58% 30.10 in 10.0 mi East 3.5 mph - N/A   Clear
7:56 AM 62.1 °F 45.0 °F 53% 30.11 in 10.0 mi ENE 4.6 mph - N/A   Clear
8:56 AM 66.0 °F 45.0 °F 47% 30.11 in 10.0 mi East 5.8 mph - N/A   Clear
9:56 AM 69.1 °F 45.0 °F 42% 30.12 in 10.0 mi SSE 3.5 mph - N/A   Clear
10:56 AM 73.0 °F 46.0 °F 38% 30.11 in 10.0 mi Calm Calm - N/A   Clear
11:56 AM 75.9 °F 48.9 °F 38% 30.11 in 10.0 mi Variable 3.5 mph - N/A   Clear
12:56 PM 81.0 °F 50.0 °F 34% 30.10 in 10.0 mi WSW 6.9 mph - N/A   Clear
1:56 PM 84.0 °F 46.0 °F 26% 30.09 in 10.0 mi SSW 11.5 mph - N/A   Clear
2:56 PM 86.0 °F 45.0 °F 24% 30.07 in 10.0 mi SW 12.7 mph - N/A   Partly Cloudy
3:56 PM 88.0 °F 44.1 °F 22% 30.06 in 10.0 mi WSW 13.8 mph - N/A   Scattered Clouds
4:56 PM 87.1 °F 43.0 °F 21% 30.06 in 10.0 mi West 10.4 mph 18.4 mph N/A   Clear
5:56 PM 87.1 °F 44.1 °F 22% 30.05 in 10.0 mi WSW 11.5 mph - N/A   Clear
6:56 PM 87.1 °F 45.0 °F 23% 30.05 in 10.0 mi SW 13.8 mph - N/A   Clear
7:56 PM 84.9 °F 46.0 °F 26% 30.05 in 10.0 mi WSW 12.7 mph - N/A   Clear
8:56 PM 84.0 °F 44.1 °F 25% 30.05 in 10.0 mi West 13.8 mph - N/A   Clear
9:56 PM 82.0 °F 45.0 °F 27% 30.06 in 10.0 mi West 12.7 mph - N/A   Clear
10:56 PM 77.0 °F 46.9 °F 34% 30.07 in 10.0 mi West 5.8 mph - N/A   Clear
11:56 PM 71.1 °F 51.1 °F 49% 30.09 in 10.0 mi Calm Calm - N/A   Clear